Location: Asheville, NC
(35.6000°N, 82.5500°W)
Time: 19:41:17
(UTC-04:00)

ITAMSAT 1 - Pass Details

Date: 11 March 2018
Orbit: 784 x 796 km, 98.9° (Epoch: 23 June)

Event Time Altitude Azimuth Distance (km) Brightness Sun altitude
Rises 05:31:52 0° 13° (NNE) 3,302 11.3 -27.9°
Reaches altitude 10° 05:34:12 10° 13° (NNE) 2,367 10.5 -27.5°
Maximum altitude 05:39:26 89° 287° (WNW) 797 7.5 -26.4°
Enters shadow 05:39:49 78° 198° (SSW) 814 7.5 -26.4°
